Worthington, MN

1:47 AM CST on December 16, 2019 (GMT -0600)
Worthington Municipal

Weather History for KOTG - October, 2019

Change the Weather History Date:

Sunday, October 6, 2019

  Actual Average Record
Temperature  
Mean Temperature 53 °F -  
Max Temperature 63 °F 62 °F 87 °F (2007)
Min Temperature 43 °F 41 °F 23 °F (1988)
Degree Days  
Heating Degree Days 12    
Growing Degree Days 3 (Base 50)    
Moisture  
Dew Point 39 °F    
Average Humidity 65    
Maximum Humidity 90    
Minimum Humidity 40    
Precipitation  
Precipitation 0.00 in - - ()
Sea Level Pressure  
Sea Level Pressure 30.10 in    
Wind  
Wind Speed 12 mph (West)    
Max Wind Speed 24 mph    
Max Gust Speed 33 mph    
Visibility 10 miles    
Events      
Averages and records for this station are not official NWS values.
T = Trace of Precipitation, MM = Missing Value Source: NWS Daily Summary

Daily Weather History Graph

Daily Weather History Graph

Search for Another Location

Airport or City:

Astronomy

Oct. 06, 2019 Rise Set
Actual Time 7:25 AM CDT 6:54 PM CDT
Civil Twilight 6:56 AM CDT 7:23 PM CDT
Nautical Twilight 6:23 AM CDT 7:56 PM CDT
Astronomical Twilight 5:50 AM CDT 8:29 PM CDT
Moon 3:48 PM CDT (10/6) 12:10 AM CDT (10/6)
Length of Visible Light 12h 26m
Length of Day
11h 29m
First Quarter, 60% of the Moon is Illuminated
Oct 6
First Quarter
Oct 13
Full
Oct 21
Last Quarter
Oct 27
New
Nov 4
First Quarter

Hourly Weather History & Observations

Time (CDT) Temp. Windchill Dew Point Humidity Pressure Visibility Wind Dir Wind Speed Gust Speed Precip Events Conditions
12:56 AM 44.1 °F 39.0 °F 41.0 °F 89% 29.99 in 10.0 mi WSW 9.2 mph - N/A   Clear
1:56 AM 45.0 °F 40.6 °F 42.1 °F 90% 30.00 in 10.0 mi SW 8.1 mph - N/A   Clear
2:56 AM 44.1 °F 39.5 °F 39.9 °F 85% 30.01 in 10.0 mi SW 8.1 mph - N/A   Clear
3:56 AM 45.0 °F 40.1 °F 39.9 °F 82% 30.01 in 10.0 mi WSW 9.2 mph - N/A   Clear
4:56 AM 44.1 °F 38.6 °F 39.9 °F 85% 30.03 in 10.0 mi WSW 10.4 mph - N/A   Clear
5:56 AM 43.0 °F 37.2 °F 39.0 °F 86% 30.04 in 10.0 mi West 10.4 mph - N/A   Clear
6:56 AM 43.0 °F 36.4 °F 37.0 °F 80% 30.05 in 10.0 mi West 12.7 mph - N/A   Clear
7:56 AM 44.1 °F 38.1 °F 37.0 °F 76% 30.07 in 10.0 mi West 11.5 mph - N/A   Clear
8:56 AM 46.9 °F - 37.9 °F 71% 30.09 in 10.0 mi West 11.5 mph - N/A   Clear
9:56 AM 51.1 °F - 39.9 °F 66% 30.10 in 10.0 mi West 16.1 mph 20.7 mph N/A   Clear
10:56 AM 55.0 °F - 39.9 °F 57% 30.12 in 10.0 mi West 20.7 mph 24.2 mph N/A   Clear
11:56 AM 59.0 °F - 39.9 °F 49% 30.12 in 10.0 mi West 18.4 mph 25.3 mph N/A   Clear
12:56 PM 61.0 °F - 39.9 °F 46% 30.11 in 10.0 mi West 19.6 mph 29.9 mph N/A   Clear
1:56 PM 62.1 °F - 37.9 °F 41% 30.11 in 10.0 mi West 24.2 mph 33.4 mph N/A   Clear
2:56 PM 63.0 °F - 39.0 °F 41% 30.12 in 10.0 mi West 20.7 mph 27.6 mph N/A   Clear
3:56 PM 63.0 °F - 37.9 °F 40% 30.11 in 10.0 mi WNW 21.9 mph 27.6 mph N/A   Partly Cloudy
4:56 PM 62.1 °F - 39.0 °F 43% 30.12 in 10.0 mi WNW 19.6 mph 28.8 mph N/A   Partly Cloudy
5:56 PM 61.0 °F - 39.0 °F 44% 30.12 in 10.0 mi West 16.1 mph - N/A   Clear
6:56 PM 57.0 °F - 39.0 °F 51% 30.14 in 10.0 mi West 11.5 mph - N/A   Clear
7:56 PM 52.0 °F - 39.9 °F 63% 30.16 in 10.0 mi WSW 9.2 mph - N/A   Clear
8:56 PM 52.0 °F - 39.0 °F 61% 30.16 in 10.0 mi WSW 9.2 mph - N/A   Clear
9:56 PM 50.0 °F - 39.0 °F 66% 30.17 in 10.0 mi WSW 8.1 mph - N/A   Clear
10:56 PM 48.9 °F - 39.0 °F 69% 30.18 in 10.0 mi WSW 9.2 mph - N/A   Clear
11:56 PM 46.9 °F - 39.0 °F 74% 30.19 in 10.0 mi WSW 8.1 mph - N/A   Clear